Damascus, Syria

12:13 AM EET on February 09, 2016 (GMT +0200)
Damascus International

Weather History for OSDI - November, 2012

Change the Weather History Date:

Sunday, November 11, 2012

  Actual Average Record
Temperature  
Mean Temperature 56 °F -  
Max Temperature 61 °F 65 °F 84 °F (2010)
Min Temperature 51 °F 37 °F 32 °F (2002)
Degree Days  
Heating Degree Days 9    
Growing Degree Days 6 (Base 50)    
Moisture  
Dew Point 52 °F    
Average Humidity 81    
Maximum Humidity 100    
Minimum Humidity 4    
Precipitation  
Precipitation 0.00 in 0.03 in - ()
Sea Level Pressure  
Sea Level Pressure 29.92 in    
Wind  
Wind Speed 14 mph ()    
Max Wind Speed 30 mph    
Max Gust Speed -    
Visibility 6.3 miles    
Events Rain    
Averages and records for this station are not official NWS values.
T = Trace of Precipitation, MM = Missing Value Source: Averaged Metar Reports

Daily Weather History Graph

Daily Weather History Graph

Search for Another Location

Airport or City:

Trip Planner

Search our weather history database for the weather conditions in past years. The results will help you decide how hot, cold, wet, or windy it might be!

Date:

Astronomy

Nov. 11, 2012 Rise Set
Actual Time 6:01 AM EET 4:33 PM EET
Civil Twilight 5:35 AM EET 4:59 PM EET
Nautical Twilight 5:05 AM EET 5:29 PM EET
Astronomical Twilight 4:36 AM EET 5:59 PM EET
Moon 2:58 AM EET (11/11) 2:38 PM EET (11/11)
Length of Visible Light 11h 24m
Length of Day
10h 32m
Waning Crescent, 9% of the Moon is Illuminated
Nov 11
Waning Crescent
Nov 14
New
Nov 20
First Quarter
Nov 28
Full
Dec 6
Last Quarter

Hourly Weather History & Observations

Time (EET) Temp. Dew Point Humidity Pressure Visibility Wind Dir Wind Speed Gust Speed Precip Events Conditions
12:00 AM 57.2 °F 53.6 °F 88% 29.92 in 6.2 mi WSW 13.8 mph - N/A   Scattered Clouds
1:00 AM 57.2 °F 55.4 °F 94% 29.92 in 6.2 mi WSW 11.5 mph - N/A Rain Rain
2:00 AM 56 °F 55 °F 94%  in 9 mi SW 2.2 mph - - Rain Light Rain
2:00 AM 57.2 °F 55.4 °F 94% 29.89 in 6.2 mi SW 2.3 mph - N/A Rain Rain
3:00 AM 55.4 °F 51.8 °F 88% 29.89 in 6.2 mi SW 23.0 mph - N/A Rain Rain
4:00 AM 55.4 °F 53.6 °F 94% 29.89 in 6.2 mi WSW 25.3 mph - N/A Rain Rain
5:00 AM 55.4 °F 53.6 °F 94% 29.89 in 6.2 mi WSW 25.3 mph - N/A   Mostly Cloudy
6:00 AM 55.4 °F 53.6 °F 94% 29.89 in 6.2 mi SW 16.1 mph - N/A   Scattered Clouds
7:00 AM 55.4 °F 53.6 °F 94% 29.89 in 6.2 mi SW 16.1 mph - N/A   Mostly Cloudy
8:00 AM 56 °F 55 °F 95% 29.88 in 4 mi WSW 8.9 mph - - Rain Light Rain
8:00 AM 55.4 °F 55.4 °F 100% 29.92 in 3.7 mi WSW 9.2 mph - N/A Rain Rain
9:00 AM 55.4 °F 51.8 °F 88% 29.92 in 6.2 mi WSW 11.5 mph - N/A   Scattered Clouds
10:00 AM 57.2 °F 53.6 °F 88% 29.92 in 6.2 mi West 20.7 mph - N/A   Mostly Cloudy
11:00 AM 60.8 °F 55.4 °F 82% 29.95 in 6.2 mi West 27.6 mph - N/A   Mostly Cloudy
12:00 PM 60.8 °F 51.8 °F 72% 29.92 in 6.2 mi West 23.0 mph - N/A   Scattered Clouds
1:00 PM 62.6 °F 50.0 °F 63% 29.89 in 6.2 mi West 27.6 mph - N/A   Scattered Clouds
2:00 PM 61 °F 49 °F 54% 29.84 in 9 mi West 29.1 mph - -   Mostly Cloudy
2:00 PM 60.8 °F 48.2 °F 63% 29.89 in 6.2 mi West 29.9 mph - N/A   Scattered Clouds
3:00 PM 60.8 °F 50.0 °F 68% 29.89 in 6.2 mi West 27.6 mph - N/A   Scattered Clouds
4:00 PM 59.0 °F 48.2 °F 67% 29.89 in 6.2 mi West 27.6 mph - N/A   Scattered Clouds
5:00 PM 57.2 °F 50.0 °F 77% 29.92 in 6.2 mi West 13.8 mph - N/A   Scattered Clouds
6:00 PM 55.4 °F 48.2 °F 77% 29.95 in 6.2 mi West 6.9 mph - N/A   Scattered Clouds
7:00 PM 55.4 °F 48.2 °F 77% 29.98 in 6.2 mi West 9.2 mph - N/A   Scattered Clouds
8:00 PM 52 °F 48 °F 82% 29.93 in 9 mi West 6.7 mph - -   Partly Cloudy
8:00 PM 170.6 °F 48.2 °F 4% 29.98 in 6.2 mi West 6.9 mph - N/A   Scattered Clouds
9:00 PM 51.8 °F 48.2 °F 88% 29.98 in - WSW 9.2 mph - N/A   Scattered Clouds
10:00 PM 51.8 °F 48.2 °F 88% 29.98 in 6.2 mi WSW 9.2 mph - N/A   Scattered Clouds
11:00 PM 51.8 °F 50.0 °F 94% 29.95 in 6.2 mi West 13.8 mph - N/A   Scattered Clouds